Date String (YYYY-MM-DD hh:mm:ss) UTC,Instrument flags,absolute air pressure of the measurement (hPa),sample flow rate (lpm),inlet stack bypass flow (lpm),air temperature of the measurement (°C),ambient temperature measured by the external sensor (°C),aerosol sample conditioner tube jacket temperature (°C),OPC LED temperature (°C),internal box temperature (°C),relative humidity of the measurement (%),span deviation,mass concentration of particles derived from Lorenz-Mie calculation of OPC scattering (μg/m³),mass concentration of particles derived from Lorenz-Mie calculation of OPC scattering (μg/m³),mass concentration of particles derived from Lorenz-Mie calculation of OPC scattering (μg/m³)
DateTimeUTC,F1_M11,P_M11,Q1_M11,Q2_M11,T1_M11,T2_M11,T3_M11,T4_M11,T5_M11,U1_M11,ZSPAN_M11,X2_M11,X0_M11,X1_M11
2023-07-10 03:00:00,SystemResetWarning,0832.3,5.00,000.00,030.7,025.5,000.0,038.4,031.1,34.0,0001.4,0007.49,0012.91,0006.91
2023-07-10 03:01:00,SystemResetWarning,0832.4,5.00,000.00,030.6,024.9,000.0,038.3,030.9,34.1,0001.5,0007.49,0012.98,0006.89
2023-07-10 03:02:00,SystemResetWarning,0832.4,5.01,000.00,030.5,025.0,000.0,038.4,030.7,34.4,0001.4,0007.50,0013.41,0006.89
2023-07-10 03:03:00,SystemResetWarning,0832.4,5.00,000.00,030.4,025.4,000.0,038.4,030.7,34.6,0001.0,0007.48,0013.32,0006.89
2023-07-10 03:04:00,SystemResetWarning,0832.5,5.00,000.00,030.3,025.9,000.0,038.4,030.7,34.8,0001.0,0007.49,0013.40,0006.89
2023-07-10 03:05:00,SystemResetWarning,0832.5,5.00,000.00,030.3,026.4,000.0,038.5,030.8,34.9,0001.1,0007.48,0013.13,0006.88
2023-07-10 03:06:00,SystemResetWarning,0832.5,5.00,000.00,030.2,026.8,000.0,038.5,030.9,34.9,0000.5,0007.45,0012.83,0006.85
2023-07-10 03:07:00,SystemResetWarning,0832.5,4.99,000.00,030.2,027.1,000.0,038.5,031.0,35.0,-000.1,0007.42,0012.64,0006.83
2023-07-10 03:08:00,SystemResetWarning,0832.5,4.97,000.00,030.2,027.4,000.0,038.5,031.1,35.1,-000.3,0007.41,0012.64,0006.80
2023-07-10 03:09:00,SystemResetWarning,0832.5,5.03,000.00,030.4,027.7,000.0,038.5,031.2,35.5,-000.8,0007.41,0012.62,0006.78
2023-07-10 03:10:00,SystemResetWarning,0832.6,4.99,000.00,030.6,027.9,000.0,038.5,031.4,34.9,-001.9,0007.43,0012.72,0006.77
2023-07-10 03:11:00,SystemResetWarning,0832.5,4.97,000.00,030.8,028.1,000.0,038.6,031.5,34.3,-002.6,0007.45,0012.94,0006.76
2023-07-10 03:12:00,SystemResetWarning,0832.6,5.01,000.00,031.0,027.7,000.0,038.5,031.5,33.8,-003.3,0007.44,0012.76,0006.77
2023-07-10 03:13:00,SystemResetWarning,0832.5,5.00,000.00,031.1,025.9,000.0,038.5,031.3,33.6,-003.1,0007.42,0012.35,0006.76
2023-07-10 03:14:00,SystemResetWarning,0832.5,5.00,000.00,031.0,024.8,000.0,038.4,031.0,33.7,-002.3,0007.45,0012.49,0006.76
2023-07-10 03:15:00,SystemResetWarning,0832.5,5.01,000.00,030.9,024.8,000.0,038.4,030.8,33.9,-001.7,0007.44,0012.45,0006.79
2023-07-10 03:16:00,SystemResetWarning,0832.5,5.01,000.00,030.8,025.2,000.0,038.5,030.7,34.2,-002.0,0007.44,0012.15,0006.82
2023-07-10 03:17:00,SystemResetWarning,0832.5,5.00,000.00,030.7,025.7,000.0,038.6,030.7,34.4,-002.0,0007.44,0012.08,0006.84
2023-07-10 03:18:00,SystemResetWarning,0832.5,5.00,000.00,030.7,026.2,000.0,038.6,030.8,34.4,-001.7,0007.47,0012.13,0006.87
2023-07-10 03:19:00,SystemResetWarning,0832.5,5.00,000.00,030.6,026.6,000.0,038.6,030.9,34.4,-001.2,0007.47,0012.31,0006.91
2023-07-10 03:20:00,SystemResetWarning,0832.6,5.00,000.00,030.6,027.0,000.0,038.7,031.0,34.4,-000.7,0007.48,0012.27,0006.95
2023-07-10 03:21:00,SystemResetWarning,0832.5,5.00,000.00,030.6,027.3,000.0,038.7,031.1,34.5,0000.2,0007.46,0013.23,0006.99
2023-07-10 03:22:00,SystemResetWarning,0832.6,5.00,000.00,030.6,027.6,000.0,038.7,031.2,34.5,0000.8,0007.50,0013.53,0007.04
2023-07-10 03:23:00,SystemResetWarning,0832.6,4.99,000.00,030.6,027.8,000.0,038.7,031.2,34.5,0001.3,0007.55,0013.78,0007.08
2023-07-10 03:24:00,SystemResetWarning,0832.5,4.99,000.00,030.6,028.0,000.0,038.8,031.3,34.5,0001.2,0007.59,0013.88,0007.11
2023-07-10 03:25:00,SystemResetWarning,0832.5,5.01,000.00,030.6,028.1,000.0,038.8,031.3,34.5,0000.9,0007.61,0013.74,0007.16
2023-07-10 03:26:00,SystemResetWarning,0832.5,4.99,000.00,030.7,027.5,000.0,038.7,031.3,34.8,0000.3,0007.63,0014.28,0007.17
2023-07-10 03:27:00,SystemResetWarning,0832.5,4.99,000.00,030.6,026.0,000.0,038.6,031.1,34.7,0000.3,0007.67,0014.72,0007.19
2023-07-10 03:28:00,SystemResetWarning,0832.5,5.01,000.00,030.5,025.5,000.0,038.5,030.9,34.9,0000.6,0007.78,0015.11,0007.23
2023-07-10 03:29:00,SystemResetWarning,0832.6,4.98,000.00,030.4,025.7,000.0,038.5,030.8,35.1,0000.7,0007.80,0015.04,0007.26
2023-07-10 03:30:00,SystemResetWarning,0832.5,5.03,000.00,030.5,026.1,000.0,038.6,030.9,35.0,0000.5,0007.87,0015.01,0007.30
2023-07-10 03:31:00,SystemResetWarning,0832.5,4.97,000.00,030.7,026.5,000.0,038.6,031.1,34.5,-000.1,0007.94,0015.16,0007.32
2023-07-10 03:32:00,SystemResetWarning,0832.6,5.01,000.00,030.7,026.9,000.0,038.6,031.1,34.4,0000.1,0008.00,0014.30,0007.36
2023-07-10 03:33:00,SystemResetWarning,0832.6,5.01,000.00,030.8,027.2,000.0,038.6,031.2,34.2,-000.1,0008.03,0013.54,0007.38
2023-07-10 03:34:00,SystemResetWarning,0832.6,4.99,000.00,030.8,027.5,000.0,038.7,031.2,34.1,-000.1,0008.07,0013.12,0007.41
2023-07-10 03:35:00,SystemResetWarning,0832.6,5.00,000.00,030.9,027.7,000.0,038.7,031.3,34.0,-000.3,0008.05,0012.81,0007.44
2023-07-10 03:36:00,SystemResetWarning,0832.6,5.01,000.00,030.9,027.9,000.0,038.8,031.3,34.1,-000.6,0008.04,0012.74,0007.44
2023-07-10 03:37:00,SystemResetWarning,0832.6,4.99,000.00,030.9,028.1,000.0,038.8,031.4,34.1,-000.2,0008.04,0012.34,0007.44
2023-07-10 03:38:00,SystemResetWarning,0832.6,4.99,000.00,030.9,027.9,000.0,038.8,031.4,34.2,0000.6,0008.05,0012.07,0007.43
2023-07-10 03:39:00,SystemResetWarning,0832.6,5.00,000.00,030.9,026.3,000.0,038.7,031.3,33.9,0000.7,0007.99,0011.57,0007.41
2023-07-10 03:40:00,SystemResetWarning,0832.6,5.00,000.00,030.9,025.5,000.0,038.6,031.1,33.9,0000.2,0008.00,0011.96,0007.40
2023-07-10 03:41:00,SystemResetWarning,0832.6,5.01,000.00,030.7,025.6,000.0,038.7,030.9,34.2,0000.5,0007.99,0012.32,0007.38
2023-07-10 03:42:00,SystemResetWarning,0832.7,5.00,000.00,030.6,026.0,000.0,038.7,030.9,34.5,0000.1,0007.96,0012.21,0007.36
2023-07-10 03:43:00,SystemResetWarning,0832.7,5.00,000.00,030.6,026.4,000.0,038.7,030.9,34.6,-001.1,0007.95,0012.62,0007.35
2023-07-10 03:44:00,SystemResetWarning,0832.7,5.01,000.00,030.5,026.8,000.0,038.8,031.0,34.7,-001.6,0007.94,0012.74,0007.34
2023-07-10 03:45:00,SystemResetWarning,0832.7,5.00,000.00,030.5,027.1,000.0,038.8,031.1,34.7,-001.0,0007.89,0012.81,0007.33
2023-07-10 03:46:00,SystemResetWarning,0832.7,4.99,000.00,030.5,027.4,000.0,038.8,031.2,34.7,-000.3,0007.90,0013.22,0007.31
2023-07-10 03:47:00,SystemResetWarning,0832.7,5.00,000.00,030.5,027.7,000.0,038.8,031.2,34.9,-000.5,0007.91,0013.36,0007.30
2023-07-10 03:48:00,SystemResetWarning,0832.7,5.00,000.00,030.5,027.9,000.0,038.8,031.3,34.8,0000.0,0007.90,0013.28,0007.30
2023-07-10 03:49:00,SystemResetWarning,0832.7,5.01,000.00,030.5,028.1,000.0,038.8,031.3,34.8,0000.0,0007.89,0014.01,0007.31
2023-07-10 03:50:00,SystemResetWarning,0832.8,5.00,000.00,030.5,028.2,000.0,038.8,031.4,34.8,-000.6,0007.91,0014.27,0007.33
2023-07-10 03:51:00,SystemResetWarning,0833.0,4.99,000.00,030.5,027.6,000.0,038.7,031.4,34.6,-000.9,0007.93,0014.46,0007.36
2023-07-10 03:52:00,SystemResetWarning,0832.7,5.00,000.00,030.5,026.1,000.0,038.6,031.2,34.7,-000.3,0007.94,0014.27,0007.38
2023-07-10 03:53:00,SystemResetWarning,0832.7,5.01,000.00,030.4,025.5,000.0,038.5,031.0,34.8,0000.1,0007.94,0014.17,0007.39
2023-07-10 03:54:00,SystemResetWarning,0832.7,4.99,000.00,030.3,025.7,000.0,038.5,030.8,35.1,0000.9,0007.94,0013.76,0007.38
2023-07-10 03:55:00,SystemResetWarning,0832.7,5.02,000.00,030.3,026.1,000.0,038.5,030.9,35.1,0002.1,0007.92,0013.48,0007.39
2023-07-10 03:56:00,SystemResetWarning,0832.7,4.98,000.00,030.6,026.5,000.0,038.6,031.1,34.6,0002.0,0007.94,0013.70,0007.41
2023-07-10 03:57:00,SystemResetWarning,0832.7,5.01,000.00,030.7,026.9,000.0,038.6,031.2,34.3,0001.4,0007.94,0013.69,0007.42
2023-07-10 03:58:00,SystemResetWarning,0832.7,5.01,000.00,030.8,027.2,000.0,038.6,031.2,34.2,0000.8,0007.95,0013.42,0007.46
2023-07-10 03:59:00,SystemResetWarning,0832.7,4.99,000.00,030.8,027.5,000.0,038.7,031.3,34.0,0001.2,0007.99,0013.50,0007.48
